Flag for Germany Weather past 2 weeks in Lünen, North Rhine-Westphalia, Germany

Now
39 °F

Passing clouds.


Feels Like: 32 °F
Forecast: 35 / 43 °F
Wind: 10 mph from West

Location: Dortmund / Wickede

Current Time: Mar 3, 2015 at 8:04:46 PM

Latest Report: Mar 3, 2015 at 7:20 PM


Visibility: N/A

Pressure: 29.98 "Hg

Humidity: 81%

Dew point: 34 °F

Location of LünenLocation

Historic Weather in Lünen — Graph

°F

Lünen temperature yesterday

Maximum temperature yesterday: 46 °F (at 1:20 PM)
Minimum temperature yesterday: 32 °F (at 10:20 PM)
Average temperature yesterday: 40 °F

Past Weeks' High & Low Weather Summary

 TemperatureHumidityPressure
High52 °F (Mar 1, 12:50 PM)100% (Feb 18, 10:20 AM)30.74 "Hg (Feb 18, 10:20 AM)
Low30 °F (Feb 28, 5:20 AM)42% (Feb 28, 1:50 PM)29.33 "Hg (Feb 21, 5:20 AM)
Average39 °F76%29.92 "Hg
* Reported Feb 16 6:20 PM — Mar 3 6:50 PM, Lünen, Weather by CustomWeather, © 2015

Note: Actual official high and low records may vary slightly from our data, if they occured in-between our weather recording intervals... More about our weather records

Advertising

Lünen weather history for previous 24 hours

 ConditionsComfort  
Time TempWeatherWind HumidityBarometerVisibility
6:50 PM
Tue, Mar 3
39 °FPassing clouds.13 mph81%29.98 "HgN/A
6:20 PM39 °FClear.16 mph81%29.95 "Hg10 mi
5:50 PM39 °FLight rain. Partly sunny.20 mph81%29.95 "HgN/A
5:20 PM41 °FLight rain. Partly sunny.21 mph81%29.95 "HgN/A
4:50 PM41 °FLight rain. Partly sunny.17 mph81%29.95 "HgN/A
4:20 PM41 °FLight rain. Partly sunny.18 mph76%29.95 "HgN/A
3:50 PM43 °FPartly sunny.18 mph71%29.95 "HgN/A
3:20 PM41 °FLight rain. Partly sunny.29 mph76%29.95 "HgN/A
2:50 PM43 °FLight rain. Partly sunny.18 mph71%29.92 "HgN/A
2:20 PM41 °FDrizzle. Partly sunny.13 mph76%29.95 "HgN/A
1:50 PM41 °FDrizzle. Partly sunny.15 mph76%29.98 "HgN/A
1:20 PM41 °FLight rain. Partly sunny.23 mph70%29.98 "Hg6 mi
12:50 PM43 °FLight rain. Partly sunny.20 mph66%29.98 "HgN/A
12:20 PM45 °FPartly sunny.16 mph57%30.01 "HgN/A
11:50 AM43 °FSunny.21 mph66%30.01 "Hg10 mi
11:20 AM43 °FSunny.22 mph66%30.01 "Hg10 mi
10:50 AM41 °FScattered clouds.21 mph70%30.04 "HgN/A
10:20 AM41 °FSunny.18 mph70%30.04 "Hg10 mi
9:50 AM41 °FPartly sunny.17 mph70%30.04 "HgN/A
9:20 AM39 °FScattered clouds.15 mph75%30.04 "HgN/A
8:50 AM37 °FPartly sunny.17 mph75%30.04 "HgN/A
8:20 AM37 °FScattered clouds.16 mph75%30.04 "HgN/A
7:50 AM36 °FScattered clouds.17 mph81%30.04 "HgN/A
7:20 AM36 °FPassing clouds.18 mph81%30.01 "HgN/A
6:50 AM36 °FPassing clouds.16 mph81%30.01 "HgN/A
6:20 AM37 °FPassing clouds.16 mph75%30.01 "HgN/A
5:50 AM36 °FPassing clouds.16 mph81%30.01 "HgN/A
5:20 AM36 °FPassing clouds.16 mph81%30.01 "HgN/A
10:50 PM
Mon, Mar 2
34 °FClear.14 mph87%29.92 "Hg10 mi
10:20 PM32 °FLight mixture of precip. Partly cloudy.14 mph93%29.89 "HgN/A
9:50 PM37 °FScattered showers. Passing clouds.16 mph65%29.86 "HgN/A
9:20 PM37 °FScattered showers. Passing clouds.20 mph65%29.86 "HgN/A
8:50 PM37 °FClear.18 mph70%29.83 "Hg10 mi
8:20 PM36 °FClear.17 mph81%29.80 "Hg10 mi
Weather by CustomWeather, © 2015

See weather overviewHow to use our weather pages